TimePDT,TemperatureF,Dew PointF,Humidity,Sea Level PressureIn,VisibilityMPH,Wind Direction,Wind SpeedMPH,Gust SpeedMPH,PrecipitationIn,Events,Conditions,WindDirDegrees,DateUTC
12:56 AM,50.0,43.0,77,30.00,10.0,Calm,Calm,-,N/A,,Clear,0,2013-05-17 07:56:00
1:56 AM,48.0,42.1,80,29.99,10.0,Calm,Calm,-,N/A,,Clear,0,2013-05-17 08:56:00
2:56 AM,48.9,42.1,77,29.99,10.0,Calm,Calm,-,N/A,,Clear,0,2013-05-17 09:56:00
4:56 AM,46.9,42.1,83,29.99,10.0,West,3.5,-,N/A,,Clear,280,2013-05-17 11:56:00
5:56 AM,46.0,42.1,86,29.99,10.0,Calm,Calm,-,N/A,,Clear,0,2013-05-17 12:56:00
6:56 AM,48.0,42.1,80,30.01,10.0,Calm,Calm,-,N/A,,Clear,0,2013-05-17 13:56:00
7:56 AM,51.1,43.0,74,30.01,10.0,Calm,Calm,-,N/A,,Clear,0,2013-05-17 14:56:00
8:56 AM,55.0,44.1,67,30.01,10.0,Calm,Calm,-,N/A,,Clear,0,2013-05-17 15:56:00
9:56 AM,60.1,44.1,55,30.00,10.0,NNE,3.5,-,N/A,,Clear,30,2013-05-17 16:56:00
10:56 AM,64.9,43.0,45,30.00,10.0,Variable,3.5,-,N/A,,Clear,0,2013-05-17 17:56:00
11:56 AM,69.1,37.9,32,29.99,10.0,NNW,11.5,18.4,N/A,,Clear,340,2013-05-17 18:56:00
12:56 PM,70.0,33.1,26,29.99,10.0,NNW,10.4,-,N/A,,Clear,340,2013-05-17 19:56:00
1:56 PM,72.0,37.9,29,29.99,10.0,NNW,11.5,18.4,N/A,,Clear,340,2013-05-17 20:56:00
2:56 PM,72.0,42.1,34,29.99,10.0,WNW,10.4,17.3,N/A,,Clear,300,2013-05-17 21:56:00
3:56 PM,71.1,41.0,34,29.99,10.0,WNW,10.4,-,N/A,,Clear,290,2013-05-17 22:56:00
4:56 PM,69.1,41.0,36,30.00,10.0,Variable,6.9,-,N/A,,Clear,0,2013-05-17 23:56:00
5:56 PM,66.9,39.9,37,30.01,10.0,NNW,9.2,-,N/A,,Clear,330,2013-05-18 00:56:00
6:56 PM,63.0,43.0,48,30.03,10.0,North,8.1,17.3,N/A,,Clear,360,2013-05-18 01:56:00
7:56 PM,57.9,43.0,58,30.05,10.0,NE,6.9,-,N/A,,Clear,40,2013-05-18 02:56:00
8:56 PM,57.0,42.1,57,30.06,10.0,NE,5.8,-,N/A,,Clear,40,2013-05-18 03:56:00
9:56 PM,55.0,42.1,62,30.07,10.0,North,5.8,-,N/A,,Clear,10,2013-05-18 04:56:00
10:56 PM,53.1,42.1,66,30.09,10.0,Calm,Calm,-,N/A,,Clear,0,2013-05-18 05:56:00
11:56 PM,53.1,43.0,69,30.09,10.0,NNE,8.1,-,N/A,,Clear,20,2013-05-18 06:56:00